logo
Rechercher aéroport 
image banner adimage banner adimage banner ad
image banner ad

A32 - Butte Valley

Situé à Dorris, United States

ICAO - A32, IATA -

Données fournies par Airmate  

Information générale

Coordonnées: N41°53'14" W121°58'32"
Élévation : 4243 feet MSL.
Variation magnétique : 18° East
Voir autres Aéroports à California

Données opérationnelles

Special qualification required
Heure actuelle UTC:
Heure actuelle locale:
Météo à : KLMT - Crater Lake-Klamath Rgnl ( 36 km )
METAR: KLMT 281253Z AUTO 30003KT 10SM CLR 09/03 A3005 RMK AO2 SLP143 T00940033
TAF: KLMT 281147Z 2812/2912 16006KT P6SM BKN120 FM281900 22016G28KT P6SM BKN080 FM290300 24007KT P6SM SCT060
Voir NOTAMs / SUP AIP / TFR affectant cet aéroport [VIEW]
Fréquences de communication: [VIEW]

Pistes:

Identifiant RWYQFULongueur (ft)Largeur (ft)SurfaceLDA (ft)
16179°430060ASPH
34359°430060ASPH

Coordonnées de l'aéroport

Adresse: Dorris United States

Vue satellite de A32